| time (UTC) | temp F | wind direction | speed knots | gust knots | rain 1hr in | rain 24hr in | rain mn in | humidity % | barometer mb |
| 20260902030118 | 74 | 56 | 3.5 | 5.2 | 0.00 | 0.00 | 0.00 | 50 | 1013.3 |
| 20260902025617 | 74 | 62 | 4.3 | 6.1 | 0.00 | 0.00 | 0.00 | 50 | 1013.4 |
| 20260902025116 | 74 | 51 | 4.3 | 7.0 | 0.00 | 0.00 | 0.00 | 51 | 1013.5 |
| 20260902024111 | 71 | 46 | 3.5 | 7.0 | 0.00 | 0.00 | 0.00 | 59 | 1013.7 |
| 20260902023609 | 71 | 42 | 3.5 | 5.2 | 0.00 | 0.00 | 0.00 | 61 | 1013.8 |
| 20260902023101 | 71 | 38 | 3.5 | 5.2 | 0.00 | 0.00 | 0.00 | 60 | 1013.9 |
| 20260902022600 | 72 | 40 | 3.5 | 5.2 | 0.00 | 0.00 | 0.00 | 59 | 1014.0 |
| 20260902022059 | 73 | 41 | 2.6 | 3.5 | 0.00 | 0.00 | 0.00 | 57 | 1014.2 |
| 20260902021557 | 73 | 44 | 3.5 | 5.2 | 0.00 | 0.00 | 0.00 | 58 | 1014.3 |
| 20260902020533 | 73 | 41 | 2.6 | 5.2 | 0.00 | 0.00 | 0.00 | 57 | 1014.7 |
| 20260902020032 | 73 | 51 | 4.3 | 6.1 | 0.00 | 0.00 | 0.00 | 60 | 1014.9 |
| 20260902015027 | 73 | 38 | 3.5 | 5.2 | 0.00 | 0.00 | 0.00 | 57 | 1014.9 |
| 20260902014023 | 71 | 29 | 3.5 | 5.2 | 0.00 | 0.00 | 0.00 | 62 | 1015.1 |
| 20260902013018 | 68 | 17 | 3.5 | 6.1 | 0.00 | 0.00 | 0.00 | 69 | 1015.3 |
| 20260902012013 | 67 | 34 | 2.6 | 3.5 | 0.00 | 0.00 | 0.00 | 68 | 1015.4 |
| 20260902011512 | 67 | 30 | 2.6 | 4.3 | 0.00 | 0.00 | 0.00 | 68 | 1015.5 |
| 20260902011011 | 68 | 21 | 2.6 | 4.3 | 0.00 | 0.00 | 0.00 | 66 | 1015.6 |
| 20260902010510 | 69 | 10 | 3.5 | 4.3 | 0.00 | 0.00 | 0.00 | 65 | 1015.6 |
| 20260902003926 | 67 | 11 | 3.5 | 4.3 | 0.00 | 0.00 | 0.00 | 67 | 1016.0 |
| 20260902003425 | 66 | 12 | 3.5 | 4.3 | 0.00 | 0.00 | 0.00 | 67 | 1016.1 |
| 20260902002924 | 67 | 6 | 2.6 | 4.3 | 0.00 | 0.00 | 0.00 | 68 | 1016.3 |
| 20260902002422 | 66 | 9 | 2.6 | 4.3 | 0.00 | 0.00 | 0.00 | 69 | 1016.4 |
| 20260902001922 | 66 | 10 | 2.6 | 4.3 | 0.00 | 0.00 | 0.00 | 68 | 1016.5 |
| 20260902001420 | 65 | 13 | 2.6 | 4.3 | 0.00 | 0.00 | 0.00 | 67 | 1016.7 |
| 20260902000919 | 65 | 15 | 2.6 | 3.5 | 0.00 | 0.00 | 0.00 | 64 | 1016.8 |
| 20260902000418 | 66 | 5 | 3.5 | 4.3 | 0.00 | 0.00 | 0.00 | 59 | 1016.9 |
| 20260901235413 | 67 | 10 | 1.7 | 2.6 | 0.00 | 0.00 | 0.00 | 59 | 1017.1 |
| 20260901234912 | 67 | 8 | 1.7 | 2.6 | 0.00 | 0.00 | 0.00 | 59 | 1017.0 |
| 20260901233903 | 68 | 344 | 0.9 | 2.6 | 0.00 | 0.00 | 0.00 | 54 | 1017.0 |
| 20260901233403 | 69 | 324 | 0.9 | 1.7 | 0.00 | 0.00 | 0.00 | 57 | 1017.1 |
| 20260901232902 | 69 | 309 | 0.9 | 1.7 | 0.00 | 0.00 | 0.00 | 51 | 1017.2 |
| 20260901230348 | 69 | 41 | 0.9 | 2.6 | 0.00 | 0.00 | 0.00 | 54 | 1017.2 |
| 20260901225846 | 68 | 358 | 0.9 | 1.7 | 0.00 | 0.00 | 0.00 | 54 | 1017.3 |
| 20260901224806 | 66 | 331 | 1.7 | 3.5 | 0.00 | 0.00 | 0.00 | 55 | 1017.3 |
| 20260901224305 | 65 | 325 | 0.9 | 2.6 | 0.00 | 0.00 | 0.00 | 54 | 1017.3 |
| 20260901223804 | 65 | 320 | 1.7 | 3.5 | 0.00 | 0.00 | 0.00 | 58 | 1017.3 |
| 20260901223303 | 65 | 324 | 2.6 | 5.2 | 0.00 | 0.00 | 0.00 | 58 | 1017.3 |
| 20260901222802 | 64 | 311 | 2.6 | 4.3 | 0.00 | 0.00 | 0.00 | 60 | 1017.3 |
| 20260901222301 | 64 | 303 | 2.6 | 4.3 | 0.00 | 0.00 | 0.00 | 62 | 1017.3 |
| 20260901221800 | 64 | 310 | 2.6 | 4.3 | 0.00 | 0.00 | 0.00 | 61 | 1017.4 |
| 20260901220756 | 64 | 316 | 3.5 | 4.3 | 0.00 | 0.00 | 0.00 | 63 | 1017.2 |
| 20260901220255 | 64 | 315 | 3.5 | 4.3 | 0.00 | 0.00 | 0.00 | 64 | 1017.2 |
| 20260901215251 | 65 | 324 | 2.6 | 3.5 | 0.00 | 0.00 | 0.00 | 66 | 1017.1 |
| 20260901214750 | 64 | 325 | 2.6 | 2.6 | 0.00 | 0.00 | 0.00 | 68 | 1017.1 |
| 20260901214248 | 64 | 321 | 2.6 | 3.5 | 0.00 | 0.00 | 0.00 | 68 | 1017.1 |
| 20260901213244 | 64 | 330 | 1.7 | 2.6 | 0.00 | 0.00 | 0.00 | 66 | 1017.2 |
| 20260901212743 | 64 | 319 | 1.7 | 2.6 | 0.00 | 0.00 | 0.00 | 68 | 1017.1 |
| 20260901212242 | 63 | 334 | 0.9 | 2.6 | 0.00 | 0.00 | 0.00 | 69 | 1017.1 |
| 20260901211741 | 61 | 289 | 0.9 | 0.9 | 0.00 | 0.00 | 0.00 | 72 | 1017.0 |
| 20260901211240 | 60 | 275 | 0.9 | 1.7 | 0.00 | 0.00 | 0.00 | 73 | 1016.9 |
| 20260901210737 | 60 | 41 | 1.7 | 1.7 | 0.00 | 0.00 | 0.00 | 74 | 1016.8 |
| 20260901210236 | 59 | 67 | 1.7 | 1.7 | 0.00 | 0.00 | 0.00 | 73 | 1016.8 |
| 20260901205735 | 59 | 122 | 1.7 | 3.5 | 0.00 | 0.00 | 0.00 | 75 | 1016.8 |
| 20260901205234 | 59 | 144 | 2.6 | 2.6 | 0.00 | 0.00 | 0.00 | 79 | 1016.8 |
| 20260901204733 | 60 | 75 | 1.7 | 2.6 | 0.00 | 0.00 | 0.00 | 79 | 1016.8 |
| 20260901204230 | 59 | 345 | 1.7 | 2.6 | 0.00 | 0.00 | 0.00 | 81 | 1016.7 |
| 20260901203730 | 59 | 115 | 0.9 | 1.7 | 0.00 | 0.00 | 0.00 | 82 | 1016.6 |
| 20260901203229 | 59 | 48 | 1.7 | 2.6 | 0.00 | 0.00 | 0.00 | 81 | 1016.4 |
| 20260901202728 | 59 | 2 | 2.6 | 3.5 | 0.00 | 0.00 | 0.00 | 81 | 1016.3 |
| 20260901202227 | 58 | 346 | 2.6 | 2.6 | 0.00 | 0.00 | 0.00 | 81 | 1016.4 |
| 20260901201726 | 58 | 1 | 2.6 | 3.5 | 0.00 | 0.00 | 0.00 | 82 | 1016.4 |
| 20260901201225 | 58 | 19 | 2.6 | 2.6 | 0.00 | 0.00 | 0.00 | 82 | 1016.4 |
| 20260901200219 | 58 | 23 | 2.6 | 3.5 | 0.00 | 0.00 | 0.00 | 81 | 1016.4 |
| 20260901195718 | 58 | 5 | 3.5 | 4.3 | 0.00 | 0.00 | 0.00 | 78 | 1016.2 |
| 20260901195216 | 58 | 321 | 2.6 | 3.5 | 0.00 | 0.00 | 0.00 | 80 | 1016.2 |
| 20260901194715 | 58 | 328 | 3.5 | 4.3 | 0.00 | 0.00 | 0.00 | 78 | 1016.2 |
| 20260901192704 | 58 | 9 | 1.7 | 2.6 | 0.00 | 0.00 | 0.00 | 74 | 1016.1 |
| 20260901192202 | 58 | 359 | 2.6 | 3.5 | 0.00 | 0.00 | 0.00 | 74 | 1016.1 |
| 20260901191701 | 58 | 354 | 1.7 | 2.6 | 0.00 | 0.00 | 0.00 | 75 | 1016.1 |
| 20260901191159 | 58 | 339 | 2.6 | 3.5 | 0.00 | 0.00 | 0.00 | 74 | 1016.0 |
| 20260901190154 | 58 | 339 | 2.6 | 3.5 | 0.00 | 0.00 | 0.00 | 71 | 1016.0 |
| 20260901185551 | 59 | 342 | 1.7 | 2.6 | 0.00 | 0.00 | 0.00 | 71 | 1016.1 |
| 20260901185050 | 58 | 340 | 2.6 | 3.5 | 0.00 | 0.00 | 0.00 | 72 | 1016.1 |
| 20260901184550 | 59 | 15 | 2.6 | 3.5 | 0.00 | 0.00 | 0.00 | 71 | 1016.0 |
| 20260901184049 | 59 | 40 | 2.6 | 3.5 | 0.00 | 0.00 | 0.00 | 72 | 1016.0 |
| 20260901183547 | 59 | 5 | 2.6 | 2.6 | 0.00 | 0.00 | 0.00 | 72 | 1016.1 |
| 20260901183046 | 59 | 16 | 1.7 | 2.6 | 0.00 | 0.00 | 0.00 | 71 | 1016.1 |
| 20260901182546 | 59 | 12 | 1.7 | 2.6 | 0.00 | 0.00 | 0.00 | 71 | 1016.1 |
| 20260901182044 | 59 | 16 | 0.9 | 1.7 | 0.00 | 0.00 | 0.00 | 72 | 1016.0 |
| 20260901181038 | 59 | 342 | 2.6 | 3.5 | 0.00 | 0.00 | 0.00 | 70 | 1016.1 |
| 20260901180537 | 60 | 326 | 3.5 | 4.3 | 0.00 | 0.00 | 0.00 | 70 | 1016.0 |
| 20260901180036 | 60 | 324 | 4.3 | 5.2 | 0.00 | 0.00 | 0.00 | 69 | 1016.1 |
| 20260901175534 | 59 | 333 | 3.5 | 5.2 | 0.00 | 0.00 | 0.00 | 70 | 1016.1 |
| 20260901175033 | 60 | 2 | 3.5 | 4.3 | 0.00 | 0.00 | 0.00 | 68 | 1016.1 |
| 20260901174532 | 60 | 25 | 3.5 | 4.3 | 0.00 | 0.00 | 0.00 | 67 | 1016.1 |
| 20260901173024 | 60 | 13 | 1.7 | 2.6 | 0.00 | 0.00 | 0.00 | 69 | 1016.1 |
| 20260901172523 | 60 | 356 | 2.6 | 3.5 | 0.00 | 0.00 | 0.00 | 68 | 1016.1 |
| 20260901172022 | 60 | 11 | 3.5 | 4.3 | 0.00 | 0.00 | 0.00 | 66 | 1016.1 |
| 20260901171521 | 60 | 3 | 2.6 | 4.3 | 0.00 | 0.00 | 0.00 | 63 | 1016.1 |
| 20260901170516 | 59 | 328 | 2.6 | 3.5 | 0.00 | 0.00 | 0.00 | 65 | 1016.2 |
| 20260901165512 | 59 | 331 | 2.6 | 3.5 | 0.00 | 0.00 | 0.00 | 66 | 1016.3 |
| 20260901164506 | 60 | 345 | 4.3 | 4.3 | 0.00 | 0.00 | 0.00 | 66 | 1016.2 |
| 20260901164004 | 60 | 1 | 2.6 | 3.5 | 0.00 | 0.00 | 0.00 | 63 | 1016.3 |
| 20260901163503 | 61 | 355 | 1.7 | 3.5 | 0.00 | 0.00 | 0.00 | 62 | 1016.4 |
| 20260901163002 | 61 | 357 | 1.7 | 4.3 | 0.00 | 0.00 | 0.00 | 60 | 1016.4 |
| 20260901162501 | 61 | 21 | 1.7 | 3.5 | 0.00 | 0.00 | 0.00 | 60 | 1016.4 |
| 20260901162000 | 60 | 354 | 2.6 | 4.3 | 0.00 | 0.00 | 0.00 | 60 | 1016.4 |
| 20260901160955 | 61 | 356 | 2.6 | 4.3 | 0.00 | 0.00 | 0.00 | 56 | 1016.4 |
| 20260901160454 | 62 | 2 | 1.7 | 5.2 | 0.00 | 0.00 | 0.00 | 54 | 1016.5 |
| 20260901155450 | 60 | 137 | 0.9 | 2.6 | 0.00 | 0.00 | 0.00 | 61 | 1016.6 |
| 20260901154949 | 60 | 19 | 1.7 | 3.5 | 0.00 | 0.00 | 0.00 | 62 | 1016.7 |
| 20260901154448 | 60 | 342 | 2.6 | 5.2 | 0.00 | 0.00 | 0.00 | 63 | 1016.8 |
| 20260901153946 | 60 | 358 | 2.6 | 6.1 | 0.00 | 0.00 | 0.00 | 62 | 1016.7 |
| 20260901151935 | 61 | 341 | 1.7 | 4.3 | 0.00 | 0.00 | 0.00 | 63 | 1016.9 |
| 20260901151433 | 60 | 334 | 1.7 | 4.3 | 0.00 | 0.00 | 0.00 | 65 | 1017.0 |
| 20260901150931 | 60 | 349 | 1.7 | 4.3 | 0.00 | 0.00 | 0.00 | 66 | 1017.1 |
| 20260901150430 | 59 | 348 | 3.5 | 6.1 | 0.00 | 0.00 | 0.00 | 67 | 1017.1 |
| 20260901145926 | 60 | 349 | 4.3 | 6.1 | 0.00 | 0.00 | 0.00 | 68 | 1017.1 |
| 20260901145417 | 60 | 352 | 4.3 | 7.0 | 0.00 | 0.00 | 0.00 | 68 | 1017.2 |
| 20260901144911 | 60 | 349 | 3.5 | 6.1 | 0.00 | 0.00 | 0.00 | 67 | 1017.2 |
| 20260901144410 | 60 | 351 | 3.5 | 6.1 | 0.00 | 0.00 | 0.00 | 68 | 1017.3 |
| 20260901143909 | 60 | 350 | 4.3 | 6.1 | 0.00 | 0.00 | 0.00 | 69 | 1017.3 |
| 20260901143404 | 60 | 355 | 4.3 | 7.0 | 0.00 | 0.00 | 0.00 | 69 | 1017.3 |
| 20260901142901 | 60 | 354 | 4.3 | 7.0 | 0.00 | 0.00 | 0.00 | 69 | 1017.4 |
| 20260901142400 | 60 | 345 | 4.3 | 7.0 | 0.00 | 0.00 | 0.00 | 68 | 1017.5 |
| 20260901141837 | 60 | 346 | 5.2 | 7.8 | 0.00 | 0.00 | 0.00 | 68 | 1017.6 |
| 20260901141335 | 60 | 341 | 5.2 | 7.0 | 0.00 | 0.00 | 0.00 | 67 | 1017.6 |
| 20260901140328 | 60 | 343 | 6.1 | 8.7 | 0.00 | 0.00 | 0.00 | 67 | 1017.7 |
| 20260901135826 | 60 | 347 | 5.2 | 7.8 | 0.00 | 0.00 | 0.00 | 67 | 1017.7 |
| 20260901135324 | 60 | 351 | 6.1 | 8.7 | 0.00 | 0.00 | 0.00 | 67 | 1017.8 |
| 20260901134823 | 60 | 355 | 5.2 | 7.8 | 0.00 | 0.00 | 0.00 | 67 | 1017.8 |
| 20260901134320 | 60 | 352 | 4.3 | 7.0 | 0.00 | 0.00 | 0.00 | 66 | 1017.9 |
| 20260901133819 | 61 | 353 | 4.3 | 7.0 | 0.00 | 0.00 | 0.00 | 65 | 1017.9 |
| 20260901133319 | 61 | 338 | 5.2 | 7.0 | 0.00 | 0.00 | 0.00 | 63 | 1017.9 |
| 20260901132815 | 61 | 338 | 4.3 | 6.1 | 0.00 | 0.00 | 0.00 | 66 | 1018.0 |
| 20260901132314 | 61 | 354 | 4.3 | 6.1 | 0.00 | 0.00 | 0.00 | 65 | 1018.1 |
| 20260901131812 | 61 | 348 | 1.7 | 5.2 | 0.00 | 0.00 | 0.00 | 63 | 1018.2 |
| 20260901131311 | 61 | 323 | 1.7 | 3.5 | 0.00 | 0.00 | 0.00 | 63 | 1018.3 |
| 20260901130810 | 61 | 332 | 3.5 | 5.2 | 0.00 | 0.00 | 0.00 | 59 | 1018.5 |
| 20260901130309 | 61 | 343 | 4.3 | 6.1 | 0.00 | 0.00 | 0.00 | 58 | 1018.6 |
| 20260901125808 | 61 | 350 | 3.5 | 4.3 | 0.00 | 0.00 | 0.00 | 60 | 1018.6 |
| 20260901124804 | 62 | 358 | 1.7 | 4.3 | 0.00 | 0.00 | 0.00 | 57 | 1018.7 |
| 20260901124302 | 62 | 340 | 0.9 | 1.7 | 0.00 | 0.00 | 0.00 | 60 | 1018.8 |
| 20260901123801 | 62 | 293 | 0.9 | 1.7 | 0.00 | 0.00 | 0.00 | 59 | 1018.8 |
| 20260901123259 | 62 | 319 | 1.7 | 2.6 | 0.00 | 0.00 | 0.00 | 59 | 1018.9 |
| 20260901122758 | 62 | 340 | 2.6 | 3.5 | 0.00 | 0.00 | 0.00 | 59 | 1018.8 |
| 20260901122257 | 63 | 317 | 3.5 | 5.2 | 0.00 | 0.00 | 0.00 | 55 | 1018.9 |
| 20260901121756 | 64 | 315 | 3.5 | 5.2 | 0.00 | 0.00 | 0.00 | 51 | 1019.0 |
| 20260901121254 | 64 | 292 | 2.6 | 4.3 | 0.00 | 0.00 | 0.00 | 53 | 1019.0 |
| 20260901120753 | 64 | 296 | 3.5 | 4.3 | 0.00 | 0.00 | 0.00 | 53 | 1019.0 |
| 20260901120252 | 64 | 306 | 4.3 | 8.7 | 0.00 | 0.00 | 0.00 | 51 | 1019.0 |
| 20260901115751 | 65 | 318 | 4.3 | 11.3 | 0.00 | 0.00 | 0.00 | 49 | 1019.0 |
| 20260901115250 | 65 | 301 | 2.6 | 8.7 | 0.00 | 0.00 | 0.00 | 50 | 1019.0 |
| 20260901114748 | 65 | 321 | 3.5 | 6.1 | 0.00 | 0.00 | 0.00 | 49 | 1019.0 |
| 20260901114247 | 64 | 335 | 3.5 | 7.0 | 0.00 | 0.00 | 0.00 | 52 | 1019.1 |
| 20260901113745 | 64 | 348 | 4.3 | 7.0 | 0.00 | 0.00 | 0.00 | 51 | 1019.1 |
| 20260901113243 | 63 | 347 | 2.6 | 7.0 | 0.00 | 0.00 | 0.00 | 55 | 1019.1 |
| 20260901112742 | 62 | 134 | 0.9 | 2.6 | 0.00 | 0.00 | 0.00 | 58 | 1019.2 |
| 20260901112241 | 62 | 67 | 0.9 | 1.7 | 0.00 | 0.00 | 0.00 | 66 | 1019.1 |
| 20260901111740 | 61 | 2 | 1.7 | 3.5 | 0.00 | 0.00 | 0.00 | 67 | 1019.1 |
| 20260901111239 | 62 | 0 | 3.5 | 7.0 | 0.00 | 0.00 | 0.00 | 64 | 1019.1 |
| 20260901110738 | 62 | 359 | 2.6 | 4.3 | 0.00 | 0.00 | 0.00 | 65 | 1019.1 |
| 20260901105734 | 62 | 342 | 3.5 | 5.2 | 0.00 | 0.00 | 0.00 | 62 | 1019.2 |
| 20260901105233 | 63 | 347 | 3.5 | 5.2 | 0.00 | 0.00 | 0.00 | 62 | 1019.2 |
| 20260901104731 | 63 | 333 | 4.3 | 5.2 | 0.00 | 0.00 | 0.00 | 62 | 1019.2 |
| 20260901104230 | 63 | 335 | 4.3 | 5.2 | 0.00 | 0.00 | 0.00 | 63 | 1019.2 |
| 20260901103729 | 63 | 338 | 5.2 | 6.1 | 0.00 | 0.00 | 0.00 | 64 | 1019.2 |
| 20260901103228 | 63 | 332 | 4.3 | 6.1 | 0.00 | 0.00 | 0.00 | 66 | 1019.2 |
| 20260901102727 | 62 | 329 | 3.5 | 6.1 | 0.00 | 0.00 | 0.00 | 67 | 1019.2 |
| 20260901101723 | 63 | 348 | 4.3 | 6.1 | 0.00 | 0.00 | 0.00 | 71 | 1019.3 |
| 20260901101221 | 63 | 355 | 3.5 | 6.1 | 0.00 | 0.00 | 0.00 | 70 | 1019.3 |
| 20260901100718 | 63 | 352 | 4.3 | 6.1 | 0.00 | 0.00 | 0.00 | 69 | 1019.3 |
| 20260901100217 | 63 | 358 | 4.3 | 7.0 | 0.00 | 0.00 | 0.00 | 69 | 1019.4 |
| 20260901095714 | 63 | 352 | 4.3 | 7.0 | 0.00 | 0.00 | 0.00 | 69 | 1019.4 |
| 20260901095213 | 64 | 355 | 5.2 | 7.8 | 0.00 | 0.00 | 0.00 | 70 | 1019.3 |
| 20260901094712 | 63 | 354 | 7.0 | 7.8 | 0.00 | 0.00 | 0.00 | 69 | 1019.3 |
| 20260901093707 | 64 | 354 | 7.0 | 8.7 | 0.00 | 0.00 | 0.00 | 71 | 1019.3 |
| 20260901092703 | 63 | 359 | 7.0 | 8.7 | 0.00 | 0.00 | 0.00 | 72 | 1019.3 |
| 20260901091658 | 63 | 358 | 6.1 | 7.8 | 0.00 | 0.00 | 0.00 | 75 | 1019.3 |
| 20260901091155 | 64 | 352 | 3.5 | 7.8 | 0.00 | 0.00 | 0.00 | 74 | 1019.3 |
| 20260901090654 | 64 | 26 | 2.6 | 3.5 | 0.00 | 0.00 | 0.00 | 72 | 1019.4 |
| 20260901085650 | 64 | 32 | 1.7 | 2.6 | 0.00 | 0.00 | 0.00 | 70 | 1019.3 |
| 20260901085149 | 64 | 169 | 0.9 | 2.6 | 0.00 | 0.00 | 0.00 | 72 | 1019.3 |
| 20260901084648 | 64 | 336 | 1.7 | 4.3 | 0.00 | 0.00 | 0.00 | 72 | 1019.3 |
| 20260901084146 | 64 | 1 | 3.5 | 5.2 | 0.00 | 0.00 | 0.00 | 72 | 1019.3 |
| 20260901083645 | 64 | 20 | 4.3 | 5.2 | 0.00 | 0.00 | 0.00 | 79 | 1019.2 |
| 20260901083144 | 64 | 28 | 3.5 | 5.2 | 0.00 | 0.00 | 0.00 | 81 | 1019.2 |
| 20260901082643 | 64 | 26 | 3.5 | 4.3 | 0.00 | 0.00 | 0.00 | 81 | 1019.1 |
| 20260901082141 | 65 | 30 | 3.5 | 7.0 | 0.00 | 0.00 | 0.00 | 82 | 1019.1 |
| 20260901081135 | 65 | 18 | 3.5 | 4.3 | 0.00 | 0.00 | 0.00 | 84 | 1019.0 |
| 20260901080633 | 65 | 11 | 3.5 | 6.1 | 0.00 | 0.00 | 0.00 | 83 | 1018.9 |
| 20260901080132 | 65 | 13 | 2.6 | 3.5 | 0.00 | 0.00 | 0.00 | 84 | 1018.9 |
| 20260901075128 | 65 | 18 | 2.6 | 5.2 | 0.00 | 0.00 | 0.00 | 82 | 1018.8 |
| 20260901074626 | 65 | 25 | 3.5 | 4.3 | 0.00 | 0.00 | 0.00 | 81 | 1018.7 |
| 20260901074125 | 65 | 26 | 2.6 | 4.3 | 0.00 | 0.00 | 0.00 | 79 | 1018.7 |
| 20260901073624 | 66 | 34 | 2.6 | 5.2 | 0.00 | 0.00 | 0.00 | 77 | 1018.7 |
| 20260901073122 | 66 | 44 | 4.3 | 7.0 | 0.00 | 0.00 | 0.00 | 77 | 1018.7 |
| 20260901072621 | 67 | 45 | 4.3 | 7.0 | 0.00 | 0.00 | 0.00 | 76 | 1018.7 |
| 20260901071616 | 67 | 40 | 3.5 | 7.0 | 0.00 | 0.00 | 0.00 | 73 | 1018.7 |
| 20260901070109 | 68 | 37 | 3.5 | 6.1 | 0.00 | 0.00 | 0.00 | 68 | 1018.7 |
| 20260901065103 | 69 | 41 | 4.3 | 8.7 | 0.00 | 0.00 | 0.00 | 71 | 1018.7 |
| 20260901064602 | 69 | 49 | 6.1 | 9.6 | 0.00 | 0.00 | 0.00 | 69 | 1018.7 |
| 20260901064101 | 69 | 43 | 5.2 | 8.7 | 0.00 | 0.00 | 0.00 | 70 | 1018.7 |
| 20260901063600 | 70 | 42 | 4.3 | 8.7 | 0.00 | 0.00 | 0.00 | 69 | 1018.7 |
| 20260901063059 | 70 | 35 | 5.2 | 8.7 | 0.00 | 0.00 | 0.00 | 69 | 1018.8 |
| 20260901062558 | 70 | 43 | 4.3 | 7.0 | 0.00 | 0.00 | 0.00 | 68 | 1018.7 |
| 20260901062057 | 71 | 41 | 4.3 | 7.8 | 0.00 | 0.00 | 0.00 | 67 | 1018.7 |
| 20260901061555 | 71 | 43 | 4.3 | 7.8 | 0.00 | 0.00 | 0.00 | 67 | 1018.8 |
| 20260901061054 | 71 | 41 | 4.3 | 7.8 | 0.00 | 0.00 | 0.00 | 63 | 1018.8 |
| 20260901060553 | 71 | 45 | 4.3 | 7.8 | 0.00 | 0.00 | 0.00 | 66 | 1018.8 |
| 20260901060052 | 70 | 54 | 6.1 | 8.7 | 0.00 | 0.00 | 0.00 | 67 | 1018.8 |
| 20260901055551 | 70 | 50 | 5.2 | 10.4 | 0.00 | 0.00 | 0.00 | 68 | 1018.8 |
| 20260901055050 | 70 | 63 | 7.0 | 9.6 | 0.00 | 0.00 | 0.00 | 67 | 1018.9 |
| 20260901054045 | 70 | 80 | 5.2 | 7.8 | 0.00 | 0.00 | 0.00 | 64 | 1019.0 |
| 20260901053543 | 69 | 76 | 7.8 | 10.4 | 0.00 | 0.00 | 0.00 | 65 | 1019.0 |
| 20260901053042 | 70 | 65 | 8.7 | 11.3 | 0.00 | 0.00 | 0.00 | 66 | 1019.0 |
| 20260901052541 | 71 | 63 | 7.8 | 10.4 | 0.00 | 0.00 | 0.00 | 64 | 1019.2 |
| 20260901052039 | 70 | 64 | 7.8 | 10.4 | 0.00 | 0.00 | 0.00 | 63 | 1019.1 |
| 20260901051538 | 70 | 63 | 7.0 | 11.3 | 0.00 | 0.00 | 0.00 | 65 | 1019.1 |
| 20260901051037 | 70 | 84 | 7.0 | 9.6 | 0.00 | 0.00 | 0.00 | 62 | 1019.0 |
| 20260901050536 | 70 | 79 | 7.0 | 8.7 | 0.00 | 0.00 | 0.00 | 63 | 1019.1 |
| 20260901050035 | 71 | 64 | 8.7 | 10.4 | 0.00 | 0.00 | 0.00 | 63 | 1019.2 |
| 20260901045533 | 71 | 58 | 7.0 | 9.6 | 0.00 | 0.00 | 0.00 | 63 | 1019.2 |
| 20260901045032 | 71 | 59 | 6.1 | 8.7 | 0.00 | 0.00 | 0.00 | 58 | 1019.2 |
| 20260901044530 | 70 | 63 | 6.1 | 7.8 | 0.00 | 0.00 | 0.00 | 59 | 1019.3 |
| 20260901044029 | 69 | 72 | 6.1 | 7.8 | 0.00 | 0.00 | 0.00 | 62 | 1019.3 |
| 20260901043528 | 70 | 56 | 6.1 | 9.6 | 0.00 | 0.00 | 0.00 | 61 | 1019.4 |
| 20260901043027 | 70 | 78 | 7.8 | 11.3 | 0.00 | 0.00 | 0.00 | 67 | 1019.4 |
| 20260901042526 | 71 | 85 | 7.8 | 11.3 | 0.00 | 0.00 | 0.00 | 65 | 1019.4 |
| 20260901042025 | 72 | 93 | 7.8 | 11.3 | 0.00 | 0.00 | 0.00 | 66 | 1019.4 |
| 20260901041524 | 71 | 92 | 7.8 | 11.3 | 0.00 | 0.00 | 0.00 | 65 | 1019.4 |
| 20260901041024 | 73 | 96 | 6.1 | 9.6 | 0.00 | 0.00 | 0.00 | 63 | 1019.5 |
| 20260901040523 | 73 | 91 | 7.8 | 11.3 | 0.00 | 0.00 | 0.00 | 61 | 1019.5 |
| 20260901040022 | 72 | 89 | 7.0 | 8.7 | 0.00 | 0.00 | 0.00 | 62 | 1019.7 |
| 20260901034631 | 71 | 87 | 6.1 | 9.6 | 0.00 | 0.00 | 0.00 | 65 | 1019.9 |
| 20260901034129 | 70 | 84 | 6.1 | 8.7 | 0.00 | 0.00 | 0.00 | 65 | 1020.0 |
| 20260901033629 | 71 | 89 | 5.2 | 7.8 | 0.00 | 0.00 | 0.00 | 62 | 1020.1 |
| 20260901033127 | 71 | 91 | 5.2 | 7.8 | 0.00 | 0.00 | 0.00 | 63 | 1020.2 |
| 20260901032626 | 72 | 92 | 4.3 | 7.8 | 0.00 | 0.00 | 0.00 | 61 | 1020.3 |
| 20260901032125 | 71 | 91 | 4.3 | 7.0 | 0.00 | 0.00 | 0.00 | 64 | 1020.3 |
| 20260901031624 | 71 | 89 | 5.2 | 7.8 | 0.00 | 0.00 | 0.00 | 62 | 1020.4 |
| 20260901031123 | 70 | 90 | 5.2 | 7.0 | 0.00 | 0.00 | 0.00 | 64 | 1020.5 |
| 20260901030622 | 69 | 85 | 5.2 | 7.8 | 0.00 | 0.00 | 0.00 | 66 | 1020.6 |